Dewpoint
18 20 24 26 29 29 30 30 34 35 36 36 36 35 34 35 33 34 33 32 32 34 31 31 30 30 29 28 27 27 27 28 30 30 29 31 34 36 33 34 47 46 48
15 19 23 24 27 28 29 35 35 34 35 35 37 35 34 34 34 34 33 33 32 32 29 30 30 29 29 27 27 27 28 28 29 28 29 28 32 33 29 36 42 37 44
12 17 18 22 25 26 34 36 35 35 36 35 36 36 36 36 35 34 34 34 31 31 31 29 29 28 28 28 27 27 25 26 27 28 27 27 28 29 34 30 36 36 37
10 15 17 20 23 29 36 36 36 36 35 35 35 33 34 33 34 33 33 32 30 30 30 30 28 28 29 27 27 24 26 26 26 28 26 27 28 29 28 32 32 37 35
21 16 16 20 23 36 37 37 36 35 35 35 34 33 33 34 33 32 30 30 31 28 28 29 28 27 28 26 25 25 25 26 25 26 27 26 27 28 29 28 31 32 35
20 16 18 22 33 37 38 38 36 34 34 34 33 31 31 31 30 30 30 31 29 28 28 28 26 25 25 25 25 25 25 25 26 26 26 26 26 27 28 28 29 30 32
15 16 19 24 35 37 38 38 35 35 33 32 32 31 29 28 28 29 30 28 27 27 28 25 24 24 24 24 25 24 24 24 25 25 26 26 27 28 28 29 29 30 31
18 17 23 29 33 37 37 35 33 33 33 31 31 31 29 30 30 29 29 27 27 27 27 24 23 23 23 23 23 24 25 24 25 24 25 26 27 28 29 30 30 28 29
19 20 25 29 33 35 36 34 32 32 31 31 31 31 31 30 29 28 27 27 26 26 26 21 20 22 22 22 23 23 23 23 24 25 26 26 27 29 30 31 32 30 26
25 26 29 31 32 32 34 33 31 30 30 31 30 30 30 29 29 28 26 26 26 25 25 22 21 21 22 21 22 23 24 23 25 25 25 25 26 27 28 31 32 32 30
25 27 28 29 30 31 33 33 31 30 30 30 30 29 30 30 29 28 27 26 25 25 24 22 20 21 21 20 21 21 22 23 23 23 24 25 26 26 26 28 30 31 32
33 31 26 27 27 29 31 30 29 29 28 28 28 29 29 29 29 28 27 26 25 25 25 23 21 20 20 20 20 21 20 21 22 23 23 24 22 25 26 26 27 28 31
34 34 30 29 28 27 26 25 25 26 27 28 28 28 28 27 27 27 27 27 26 25 25 24 22 21 21 20 20 20 20 21 22 22 23 23 24 24 25 25 26 28 29
31 29 29 26 24 24 24 24 25 26 27 28 27 27 27 27 26 26 27 26 26 25 25 24 23 23 21 20 20 19 19 20 20 22 23 23 23 23 25 25 25 25 28
30 28 29 27 27 28 28 27 27 27 27 26 27 27 27 27 27 26 26 26 26 25 25 24 24 23 21 19 19 19 19 19 20 21 22 23 26 27 26 24 25 26 26
29 28 30 29 29 29 29 29 28 28 27 27 27 27 27 27 27 26 26 25 25 25 25 24 24 23 21 25 27 25 21 20 20 20 21 22 25 26 28 29 30 28 26
31 30 29 30 30 30 28 27 28 28 27 27 27 27 27 26 26 25 25 24 24 24 23 23 23 23 23 27 28 28 23 23 22 22 22 22 22 25 24 27 28 28 29
30 29 27 28 29 27 27 26 27 27 27 27 27 27 26 26 25 25 24 24 23 23 22 22 22 22 22 27 27 27 23 23 22 23 23 23 23 24 26 25 24 24 25
26 25 25 26 26 25 25 25 26 26 26 25 25 25 25 24 24 23 23 23 23 22 22 21 21 21 21 25 26 25 22 22 22 22 23 23 22 26 28 25 26 28 26
29 26 28 28 28 27 27 25 25 24 24 24 24 25 25 24 23 24 24 23 23 24 21 20 20 22 20 24 25 25 22 25 24 22 22 25 23 27 27 24 27 28 28
25 25 24 25 25 25 23 24 23 22 23 24 24 24 22 22 22 21 21 23 24 23 20 19 19 20 21 20 25 25 23 25 24 23 22 22 26 26 26 27 30 29 28
25 25 24 25 23 21 20 21 21 22 22 22 22 21 22 21 20 20 20 21 20 20 19 19 19 19 19 23 23 25 27 28 28 25 23 22 25 25 26 26 29 30 30
22 20 19 23 20 15 14 18 19 22 20 20 20 20 20 19 19 20 21 21 20 20 20 21 21 20 20 20 24 25 26 27 27 30 30 29 27 27 26 28 28 28 27
16 14 15 14 15 10 11 15 18 20 19 19 19 19 19 20 19 19 19 19 19 20 20 19 18 19 19 19 20 20 21 23 22 23 24 25 26 30 29 29 28 26 26
12 9 8 11 10 8 8 11 15 18 19 19 19 19 20 19 20 20 20 20 21 23 23 23 23 22 23 24 25 28 28 26 25 24 24 23 23 22 23 24 26 29 27
8 9 4 4 9 9 8 9 10 16 18 18 18 18 19 19 20 20 20 23 23 23 25 26 25 25 29 28 28 28 28 28 28 25 27 26 24 23 23 23 23 25 26
Lifted_Index
14 15 14 13 12 12 12 12 13 13 14 14 14 15 16 16 17 17 18 19 19 19 19 20 20 20 19 19 19 18 17 17 17 15 13 13 12 12 12 12 12 11 10
14 15 14 13 12 12 12 13 13 13 13 14 14 15 16 16 17 17 17 18 19 19 19 19 19 19 19 19 19 18 18 17 17 16 14 12 11 12 12 13 13 12 12
13 14 14 13 12 12 12 13 13 13 13 13 14 15 15 16 16 16 17 18 18 18 19 19 19 19 19 19 19 19 18 18 17 17 15 13 12 11 11 12 13 13 13
13 14 14 14 13 13 13 13 14 14 13 13 14 14 15 15 15 16 16 17 18 18 18 19 19 19 19 19 19 20 19 18 18 18 18 17 15 13 11 11 12 13 14
13 13 14 14 14 14 13 14 14 14 13 13 14 14 14 15 15 15 16 16 17 17 18 18 18 19 19 19 20 20 20 19 19 19 19 18 17 16 13 11 11 12 13
12 13 14 15 14 14 14 14 14 14 13 13 13 14 14 14 15 15 15 16 16 17 17 18 18 18 18 19 19 19 19 19 19 19 19 19 18 17 16 13 12 11 11
12 12 14 14 14 14 14 14 14 13 13 13 13 13 14 14 14 14 15 15 15 16 16 17 17 18 18 18 18 18 19 19 19 19 19 19 19 19 18 16 14 12 11
12 12 13 14 13 13 13 13 13 13 13 13 13 13 13 13 13 14 14 14 14 15 16 16 17 17 17 18 18 18 18 18 18 18 18 19 19 20 20 19 16 13 11
11 12 13 13 13 12 12 13 13 12 12 13 13 13 13 13 13 14 14 14 14 15 15 16 16 16 17 17 17 17 17 17 17 17 17 18 18 19 19 19 18 15 13
10 11 12 12 12 12 12 12 12 12 12 12 13 13 13 13 13 13 13 14 14 15 15 15 15 15 15 16 16 16 16 16 16 16 16 16 17 17 18 19 18 17 16
9 10 11 12 12 12 12 12 12 12 12 12 12 12 12 12 13 13 13 13 14 14 14 14 14 14 14 14 14 14 15 15 15 15 15 15 15 16 17 17 18 18 18
9 10 11 11 11 11 12 12 12 11 11 12 11 11 11 11 12 12 12 12 12 12 12 13 12 12 12 13 13 13 13 14 14 14 14 14 15 15 16 16 17 17 18
9 10 10 11 11 11 11 11 11 11 10 10 10 10 10 11 11 11 11 11 11 11 11 11 12 12 12 12 12 12 12 12 13 13 14 14 14 14 15 16 16 17 17
9 9 9 9 9 10 10 10 10 10 10 10 10 10 10 10 11 11 11 11 11 11 11 11 11 11 11 11 11 11 11 12 12 12 13 14 14 14 15 15 16 17 17
9 9 8 8 8 9 9 9 10 10 10 10 10 10 10 10 10 10 10 10 10 10 10 10 10 10 10 10 10 11 11 11 11 12 12 13 14 14 15 15 16 16 16
8 8 8 7 8 9 10 10 10 11 11 10 10 10 10 10 10 10 10 10 10 10 10 10 10 10 9 10 10 10 10 10 11 11 11 12 13 14 15 15 16 16 16
7 7 8 8 9 9 10 10 10 10 10 9 9 9 9 9 9 9 9 9 9 9 9 9 9 9 9 10 10 10 10 10 10 10 11 11 12 13 14 15 15 16 16
6 7 8 8 9 9 9 9 9 9 9 8 8 8 9 9 9 9 9 9 9 9 9 9 9 9 9 9 9 9 9 9 10 10 10 10 11 12 13 14 15 16 16
7 7 8 8 8 8 8 8 8 8 8 8 8 8 9 9 9 9 9 9 9 9 10 10 9 9 9 9 9 9 9 9 9 9 9 10 10 10 12 13 14 15 15
7 7 6 6 6 7 7 7 7 7 7 8 8 9 9 9 9 9 9 10 10 10 10 10 10 10 9 9 9 9 8 9 9 8 8 9 9 9 10 11 13 14 14
5 5 5 5 5 6 6 6 7 7 8 8 9 9 9 10 10 10 10 10 10 10 10 10 10 10 10 10 9 9 8 8 8 8 8 8 8 9 9 10 12 13 14
4 4 4 5 5 6 6 6 7 7 8 9 9 9 10 10 11 11 11 11 11 11 11 10 10 10 10 10 10 9 8 8 8 7 7 7 8 8 8 9 11 12 13
4 4 5 5 5 6 7 7 7 8 9 9 9 10 11 11 11 12 12 12 11 11 11 11 10 10 10 10 10 9 8 8 7 7 7 7 7 7 8 9 10 12 13
5 5 5 5 5 6 7 8 8 9 9 10 10 11 11 11 12 12 12 12 12 11 11 11 10 10 10 10 9 9 9 8 8 7 7 7 7 7 8 9 10 12 13
5 5 5 5 5 6 7 8 9 10 10 10 11 11 12 12 12 12 12 12 12 11 11 11 10 10 10 9 9 8 8 8 7 7 7 7 7 7 8 9 10 12 13
4 4 4 5 6 6 7 9 10 10 11 11 11 11 12 12 12 11 11 12 12 11 11 11 10 10 9 9 8 8 8 7 7 7 7 7 7 7 8 9 10 12 13